CONNECTA IOT-9

Satellite information

Favourite Embed

Satellite Type and Status

PAYLOADIN ORBIT

Key statistics

Satellite CONNECTA IOT-9 at a glance.

Uptime

75

Days in orbit

Revolutions

≈ 15.2

Per day

Orbit

SSO

Sun Synchronous Orbit

Inclination

97.5

Latest

Satellite identification and parameters

Extended collection of information and parameters for CONNECTA IOT-9.

Object identification

Identified? True

Debris? False

Object name: CONNECTA IOT-9

International designator: 2025-135G

Object number (NORAD): 64534

Object ID (CCSDS): 64534

Country: TURKEY (TURK)

Current information (Y/N): Y

RCS size: MEDIUM

Orbital parameters

Period: 94.905 minutes

Inclination: 97.456 deg

SMA: 6892.101 km

Apoapsis: 518.437 km

Periapsis: 509.495 km

RAAN: 2.1199 deg

Eccentricy: 0.00064865

Argument of periapsis: 79.7222 deg

Mean anomaly: 280.4742 deg

Mean motion: 15.17313448 rev/day

Mean motion (dot): 0.00005448 rev/day2

B* drag term: 0.00027645623 1/REarth

Two-line elements (TLE)

Creation date: Sept. 6, 2025, 2:09 a.m.

Reference frame: TEME

Reference center: EARTH

Epoch: Sept. 5, 2025, 7:25 p.m. UTC

TLE line 0: 0 CONNECTA IOT-9

TLE line 1: 1 64534U 25135G 25248.80915514 .00005448 00000-0 27646-3 0 9991

TLE line 2: 2 64534 97.4560 2.1199 0006487 79.7222 280.4742 15.17313448 11658

Live tracking on map

Real-time ground track for satellite CONNECTA IOT-9.

In-orbit conjunctions

There are no conjunctions computed for CONNECTA IOT-9, at the moment. Check back to stay up to date, as we update our databases every day.

Go to all conjunctions

Associated space launch

Dedicated rideshare flight to a sun-synchronous orbit with dozens of small microsatellites and nanosatellites for commercial and government customers.

CONNECTA IOT-9 was lifted into orbit during the mission ‘Falcon 9 Block 5 | Transporter 14 (Dedicated SSO Rideshare)’, on board a Falcon 9 space rocket.

The launch took place on June 23, 2025, 9:25 p.m. from Space Launch Complex 4E.

For more information about the launch, click the button.

Launch to space Falcon 9 Block 5 | Transporter 14 (Dedicated SSO Rideshare)
Falcon 9 Block 5 | Transporter 14 (Dedicated SSO Rideshare)

Agency: SpaceX

Status: Launch Successful

Launch date: June 23, 2025, 9:25 p.m. UTC

Rocket: Falcon 9

Launch pad: Space Launch Complex 4E

Location: Vandenberg SFB, CA, USA

...

Latest news about this satellite

News about space launch
A European spacecraft company flies its vehicle, then loses it after reentry

"This partial success reflects both ambition and the inherent risks of innovation."

News about space launch
The Exploration Company claims partial success of Mission Possible reentry spacecraft

The Exploration Company said it achieved “partial success” on a test flight of a reentry capsule but lost the spacecraft before it splashed down. The post The Exploration Company claims partial success of Mission Possible reentry spacecraft appeared firs...

News about space launch
The Exploration Company Declares Mission Possible a “Partial Success”

In-space logistics startup The Exploration Company has declared its Mission Possible flight both a partial success and a partial failure following a successful reentry. As The Exploration Company works toward the inaugural flight of its full-scale Nyx spa...


Newsletter sign-up

Weekly statistics, charts and insights to help you stay on top of the space industry.